Preview of NWS' New Version of Forecast
This preview is not operational and should not be used for support decisions.

Regional Weather Roundup (RWR)

Issued by National Weather Service (NWS)

                            
000
ASCA42 TJSJ 230510
RWRPR 
PUERTO RICO/U.S. VIRGIN ISLANDS HOURLY WEATHER ROUNDUP
NATIONAL WEATHER SERVICE SAN JUAN PR
100 AM AST TUE APR 23 2019

PRZ001>002-007>008-010-230600-
PUERTO RICO
  
CITY           SKY/WX    TMP DP  RH WIND       PRES   REMARKS
SAN JUAN LMM   LGT RAIN  75  66  73 CALM      29.98F                  
CEIBA          PTCLDY    77  66  69 MISG      29.99F                  
$$

VIZ001>002-230600-
U.S. VIRGIN ISLANDS
  
CITY           SKY/WX    TMP DP  RH WIND       PRES   REMARKS
CHARLOTTE AMA  PTCLDY    75  64  69 E6        29.96F                  
CHRISTIANSTED  CLEAR     70  64  83 N6        29.97F                  
$$

HOURLY WEATHER ROUNDUP FOR THE NEWS MEDIA
  
CITY           SKY/WX    TMP DP  RH WIND       PRES   REMARKS
ORLANDO        FAIR      65  53  65 CALM      30.14S                  
NEW YORK       CLOUDY    59  57  93 NW16      30.01S                  
NEWARK         CLOUDY    60  55  83 N8        30.01F                  
CHICAGO        MOCLDY    67  52  58 SW15G22   29.82R                  
HARTFORD       CLOUDY    49  49 100 N6        29.88F                  
DALLAS         CLOUDY    73  61  65 SE10G18   30.02S                  
PHILADELPHIA   FAIR      62  47  57 N6        30.04S                  
LOS ANGELES    CLEAR     61  54  77 S6        29.97R                  
WASHINGTON DC  FAIR      51  46  83 CALM      30.09R